Wind_Speed
32 38 42 44 43 43 44 47 47 46 45 46 46 45 44 43 42 40 36 32 32 37 43 39 35 33 37 36 38 38 35 32 34 36 35 34 35 32
37 44 47 47 47 49 47 48 47 47 49 47 46 46 45 44 39 37 35 32 31 34 41 38 41 47 31 34 35 32 37 36 34 34 36 36 35 33
45 48 50 53 55 54 53 52 48 49 48 45 43 43 43 42 42 37 36 34 33 32 37 37 38 39 33 31 30 33 39 39 33 29 31 30 34 38
48 51 55 59 59 57 54 54 54 51 47 44 44 45 44 42 42 41 37 36 34 34 35 36 35 34 33 33 34 30 29 30 29 28 29 31 24 21
51 55 60 63 60 59 57 54 53 52 45 44 46 46 45 44 43 41 39 39 40 38 38 39 40 38 33 31 30 30 28 27 27 28 31 30 31 30
54 60 61 62 61 59 60 57 54 52 48 47 46 48 46 46 45 44 43 42 42 42 43 42 43 44 43 38 36 34 33 31 32 33 33 33 35 35
44 49 59 60 57 57 54 54 55 52 52 52 52 53 52 49 50 49 47 47 46 45 45 47 45 46 47 46 45 42 41 40 41 43 44 43 43 43
47 49 46 49 53 57 58 57 55 53 57 57 57 58 55 54 54 54 54 53 51 51 49 48 49 50 51 51 51 51 52 52 52 50 50 49 49 50
50 53 53 51 57 57 54 55 56 58 61 62 62 60 59 58 58 57 57 56 55 54 54 54 54 54 53 55 56 57 57 58 57 55 55 56 56 57
54 55 56 50 49 51 53 59 64 66 65 66 65 62 61 59 60 61 61 60 60 61 63 62 62 63 64 63 64 64 64 64 63 63 63 63 63 64
48 48 48 48 53 56 57 60 62 62 61 60 62 64 65 66 66 66 66 67 67 67 68 68 68 69 70 71 71 72 71 69 68 68 69 67 63 62
43 46 49 51 54 56 56 58 61 64 66 68 70 72 73 74 75 76 75 75 76 76 78 79 77 77 77 78 77 75 73 72 69 67 64 61 58 57
46 47 50 52 57 60 64 67 69 71 73 75 77 80 83 84 86 86 87 86 86 86 86 87 85 84 82 82 78 76 73 71 65 62 60 58 57 56
49 52 55 60 64 67 70 72 75 78 80 83 86 88 91 92 91 91 90 90 91 91 90 90 89 84 78 78 73 68 66 61 57 55 55 54 54 54
55 58 62 66 70 74 78 80 83 86 89 90 91 92 93 93 93 91 92 92 90 89 87 87 86 82 79 74 69 65 61 58 56 55 52 50 50 49
63 67 70 74 77 81 84 87 89 92 94 95 95 96 97 97 95 95 94 93 94 92 91 88 89 86 81 75 70 66 63 59 57 54 51 50 50 50
68 73 77 81 83 86 89 92 95 96 97 98 96 93 91 86 83 81 81 79 81 82 82 82 81 80 77 72 67 64 61 59 57 54 51 51 51 50
76 79 82 86 88 91 93 94 95 94 90 81 76 65 60 56 54 53 52 51 52 53 55 57 59 62 63 62 60 58 57 56 54 51 50 49 49 49
81 83 85 87 90 92 91 88 82 73 62 53 47 42 38 35 33 32 31 31 31 31 32 36 41 45 47 48 50 51 50 50 48 47 47 46 45 46
82 85 86 87 86 82 77 63 54 46 38 32 28 24 20 17 15 14 13 12 13 15 17 21 25 29 32 36 38 40 41 42 42 43 42 42 42 42
82 82 81 77 68 55 48 40 31 24 19 16 14 11 9 9 8 6 3 3 4 6 9 13 16 20 24 28 30 33 35 36 36 37 37 36 35 36
76 70 63 52 46 39 30 21 13 10 11 12 11 11 9 6 6 5 5 5 5 5 4 7 10 13 16 19 21 24 25 26 27 28 29 29 28 28
58 50 46 41 34 23 13 6 8 10 12 12 10 10 8 8 9 8 5 4 4 5 6 7 9 11 13 15 17 18 19 20 21 21 20 22 22 23
Wind_Direction
248 255 263 271 277 285 289 297 303 293 295 298 298 300 298 297 299 301 297 290 283 275 279 279 266 263 261 254 250 246 247 249 254 255 253 255 248 241
248 254 262 271 275 279 282 291 293 291 293 295 296 299 299 299 299 298 295 290 286 278 277 275 264 273 264 252 255 251 250 247 249 253 254 248 257 257
248 255 262 270 274 276 282 289 287 289 291 293 294 295 297 300 297 294 293 289 283 279 276 278 270 276 277 265 268 265 256 248 248 254 256 261 265 262
249 256 262 268 275 278 286 287 283 285 286 288 292 293 293 293 294 291 289 287 280 275 271 273 273 269 264 264 263 260 260 257 251 252 253 255 265 275
252 258 262 268 274 281 281 279 280 283 284 287 290 289 289 289 288 287 285 284 282 274 267 263 264 266 263 260 255 255 255 252 254 254 253 253 253 259
257 263 266 270 276 281 278 278 280 280 283 286 285 284 285 285 285 283 281 280 277 273 268 264 260 257 259 263 258 255 254 256 260 264 262 265 266 269
273 283 278 272 281 276 275 273 278 278 282 282 285 286 285 284 282 279 278 277 276 272 267 260 258 258 255 255 259 258 259 262 262 263 267 269 270 271
275 270 275 272 273 270 269 271 275 278 279 280 281 283 283 283 281 279 278 277 275 272 269 265 260 257 255 255 253 255 258 262 265 266 265 265 266 267
269 268 272 271 273 272 272 274 277 277 278 282 282 281 280 278 277 275 274 273 273 272 271 268 265 262 258 257 256 259 261 260 260 261 263 263 263 265
276 275 271 274 273 275 278 277 275 275 278 280 282 282 282 280 279 277 275 274 273 272 271 269 268 268 266 262 262 262 262 262 262 263 263 263 263 264
280 280 279 279 279 279 278 278 278 279 280 281 283 283 280 278 275 274 271 270 269 267 266 265 264 264 265 265 264 265 265 265 265 265 265 265 266 267
282 283 282 280 281 282 282 283 283 284 283 282 281 279 278 276 274 273 270 268 267 266 267 267 265 265 266 268 269 268 269 269 270 271 271 271 269 264
288 289 288 286 286 286 285 285 285 284 283 282 281 280 278 276 275 273 272 270 268 267 266 266 266 266 267 267 268 269 269 270 269 269 269 267 263 259
288 287 286 286 287 287 286 287 286 285 283 282 281 280 278 278 276 275 273 272 270 267 266 266 265 266 265 265 265 263 264 264 262 260 259 259 258 256
291 290 290 289 288 289 289 289 289 289 288 287 286 285 283 281 279 276 274 271 267 265 264 263 263 262 262 261 260 259 258 256 255 254 255 256 255 252
292 293 293 294 294 294 294 294 294 294 293 291 289 287 285 282 279 275 272 268 266 262 260 258 258 258 258 257 256 254 253 252 252 253 252 253 251 251
295 298 300 301 301 300 299 297 296 294 293 292 290 288 285 281 277 273 270 266 263 260 258 256 255 254 254 253 252 250 250 250 249 250 249 250 251 251
306 305 303 301 300 299 298 298 297 296 296 294 292 290 287 283 280 276 273 269 265 261 258 254 251 250 248 246 245 244 244 244 245 247 247 247 248 250
305 304 304 303 303 302 302 302 301 300 298 297 295 293 291 288 285 281 276 272 266 260 254 248 244 241 240 239 239 238 238 240 242 243 244 245 246 248
308 307 307 306 305 305 304 303 303 303 303 303 303 306 309 307 303 293 282 273 261 249 242 238 235 234 231 229 229 231 233 234 235 237 238 241 244 248
310 309 308 308 308 308 308 309 309 311 320 332 339 345 354 0 354 344 328 296 244 229 222 222 221 222 223 221 221 222 225 229 232 235 238 240 243 246
312 314 313 313 314 314 316 319 331 6 25 24 17 10 10 33 26 41 53 77 102 123 160 194 204 210 211 210 212 214 218 223 227 231 234 239 239 236
321 320 320 319 319 322 331 11 60 59 38 16 6 360 6 64 56 58 62 79 134 154 153 159 176 183 186 191 197 202 210 218 224 229 220 217 225 228
Height
5710 5713 5714 5715 5713 5712 5711 5711 5708 5706 5703 5700 5696 5693 5691 5688 5684 5681 5679 5678 5674 5671 5667 5664 5663 5662 5660 5659 5659 5660 5661 5664 5666 5668 5671 5673 5674 5677
5701 5703 5704 5703 5703 5701 5700 5699 5697 5695 5691 5686 5683 5681 5678 5675 5670 5668 5668 5666 5665 5663 5658 5656 5655 5651 5650 5650 5650 5649 5652 5654 5657 5658 5661 5665 5666 5669
5692 5691 5691 5690 5690 5690 5688 5686 5685 5681 5678 5671 5669 5668 5665 5662 5659 5656 5655 5655 5654 5654 5651 5648 5648 5646 5644 5644 5643 5642 5643 5644 5646 5649 5652 5655 5657 5660
5679 5679 5678 5677 5677 5676 5675 5673 5671 5668 5665 5659 5656 5656 5653 5649 5647 5645 5642 5642 5642 5643 5643 5641 5639 5638 5637 5636 5636 5635 5636 5637 5638 5640 5642 5646 5648 5650
5665 5665 5665 5665 5664 5662 5659 5657 5656 5654 5649 5647 5645 5643 5640 5638 5635 5633 5630 5629 5629 5630 5629 5631 5630 5629 5629 5628 5628 5628 5628 5630 5631 5633 5635 5638 5640 5642
5651 5651 5651 5651 5649 5646 5643 5642 5640 5638 5634 5632 5631 5630 5627 5624 5622 5619 5617 5616 5614 5614 5616 5615 5617 5617 5617 5618 5618 5619 5620 5621 5622 5624 5627 5629 5631 5633
5636 5636 5634 5632 5630 5628 5628 5626 5624 5620 5617 5618 5616 5614 5611 5608 5607 5605 5603 5601 5601 5601 5601 5600 5601 5602 5603 5604 5606 5607 5608 5610 5611 5613 5614 5616 5618 5620
5621 5621 5618 5614 5613 5610 5610 5609 5607 5604 5604 5601 5598 5596 5593 5593 5591 5590 5588 5587 5586 5583 5586 5586 5586 5586 5587 5588 5590 5591 5593 5595 5596 5598 5599 5600 5602 5604
5604 5602 5599 5596 5598 5595 5595 5590 5588 5588 5587 5585 5582 5579 5577 5573 5574 5571 5569 5568 5568 5568 5568 5570 5568 5570 5571 5571 5571 5572 5574 5577 5579 5581 5583 5584 5585 5587
5588 5586 5583 5581 5582 5581 5577 5576 5573 5571 5567 5566 5564 5561 5557 5555 5552 5551 5550 5549 5550 5549 5548 5550 5548 5549 5550 5551 5552 5552 5553 5555 5558 5560 5562 5565 5567 5568
5574 5573 5570 5568 5568 5566 5564 5561 5557 5553 5549 5545 5542 5540 5537 5534 5531 5529 5528 5526 5527 5525 5521 5522 5524 5525 5525 5526 5527 5528 5529 5531 5534 5536 5538 5540 5542 5543
5563 5560 5558 5554 5551 5548 5545 5542 5539 5533 5527 5522 5519 5516 5513 5510 5507 5503 5503 5502 5500 5502 5498 5495 5497 5497 5500 5500 5500 5500 5502 5504 5506 5508 5511 5513 5515 5517
5549 5544 5541 5537 5534 5530 5525 5520 5515 5510 5505 5500 5495 5490 5485 5480 5477 5474 5470 5470 5471 5470 5472 5465 5467 5468 5469 5475 5474 5474 5476 5479 5482 5484 5486 5489 5491 5494
5536 5531 5526 5521 5516 5510 5503 5497 5491 5485 5479 5473 5467 5461 5455 5448 5443 5439 5436 5434 5434 5437 5436 5432 5435 5437 5438 5444 5449 5449 5452 5456 5460 5463 5465 5468 5471 5474
5519 5513 5507 5502 5493 5485 5476 5469 5462 5455 5448 5440 5432 5424 5417 5412 5406 5401 5398 5397 5396 5398 5401 5402 5405 5407 5411 5416 5422 5426 5430 5435 5439 5443 5446 5449 5452 5456
5500 5492 5484 5475 5466 5457 5448 5439 5429 5420 5411 5403 5395 5386 5379 5372 5365 5360 5357 5354 5356 5360 5362 5365 5371 5375 5383 5388 5396 5403 5408 5414 5418 5423 5428 5431 5435 5439
5479 5470 5460 5449 5439 5428 5416 5407 5397 5386 5376 5365 5355 5346 5338 5330 5324 5318 5315 5314 5316 5320 5325 5330 5337 5343 5352 5362 5372 5379 5386 5393 5398 5404 5410 5414 5418 5422
5454 5444 5434 5423 5412 5400 5387 5375 5363 5351 5339 5328 5319 5311 5304 5298 5294 5290 5288 5288 5290 5294 5298 5304 5310 5318 5328 5339 5348 5357 5365 5373 5380 5386 5392 5398 5401 5405
5432 5419 5407 5396 5383 5369 5356 5343 5331 5320 5310 5303 5296 5291 5286 5281 5277 5275 5273 5274 5276 5279 5282 5287 5294 5301 5310 5321 5330 5339 5348 5356 5364 5371 5376 5382 5386 5389
5408 5395 5381 5367 5353 5341 5330 5320 5310 5302 5296 5291 5285 5280 5276 5273 5270 5269 5268 5269 5270 5272 5276 5280 5286 5293 5300 5308 5317 5327 5336 5343 5350 5356 5362 5367 5371 5375
5383 5369 5354 5342 5331 5321 5312 5305 5299 5293 5288 5284 5280 5277 5275 5272 5270 5269 5268 5268 5269 5271 5275 5279 5284 5289 5295 5303 5311 5318 5326 5333 5340 5345 5350 5355 5358 5362
5360 5344 5333 5322 5313 5308 5301 5296 5293 5290 5287 5285 5282 5279 5276 5274 5273 5271 5271 5271 5272 5274 5277 5280 5284 5289 5294 5300 5307 5314 5320 5326 5332 5337 5341 5345 5349 5351
5337 5327 5318 5310 5303 5299 5295 5293 5292 5292 5290 5287 5284 5281 5279 5277 5276 5276 5275 5276 5276 5278 5280 5283 5286 5290 5295 5300 5306 5312 5317 5322 5327 5331 5335 5338 5341 5343